Погода в Эбяхе

Россия / Республика Саха (Якутия)     68°23′40″N   150°44′59″E
темп.,
°C
ветер,
м/с
пор.,
м/с
влажн.,
%
обл.,
%
осадки,
мм/ч
давл.,
гПа
погр.,
м
4 августа, ср
ср423:00+7ссв45530 0.0 102149
02:00+4ссв46660 0.0 102184
05:00+3ссв59703 0.0 1021250
08:00+7ссв7954100 0.0 1020548
11:00+11ссв91139100 0.0 1019984
14:00+12ссв101239100 0.0 10171066
17:00+13ссв101239100 0.0 10161387
20:00+10ссв91344100 0.2 1016798
5 августа, чт
чт523:00+6ссв91368100 0.8 1016613
02:00+4с81479100 1.1 1016546
05:00+4ссв81287100 4.2 1016664
08:00+4ссв6891100 1.0 1016666
11:00+4св5689100 1.1 1018623
14:00+5св4485100 0.1 1019592
17:00+6ссв4481100 0.1 1020584
20:00+6ссв3382100 0.0 1021436
6 августа, пт
пт623:00+5с348899 0.0 1022149
02:00+5с3490100 0.0 1022121
05:00+5с3589100 0.0 1023213
08:00+7ссв4578100 0.0 1023425
11:00+11ссв556540 0.0 1023764
14:00+14св566085 0.0 1023954
17:00+11св567098 0.0 1024606
20:00+11всв6669100 0.0 1024636
7 августа, сб
сб723:00+10св4676100 0.0 1025415
02:00+8всв4679100 0.0 1026410
05:00+7св4682100 0.0 1027353
08:00+7всв4582100 0.0 1027374
11:00+7всв4578100 0.1 1028441
14:00+12всв35615 0.0 1027743
17:00+16всв45405 0.0 10261110
20:00+14в565011 0.0 1026575
8 августа, вс
вс823:00+9всв467243 0.0 102764
02:00+4всв46765 0.0 102789
05:00+3св46825 0.0 1027142
08:00+6св456557 0.0 1027375
11:00+11в455759 0.0 1026536
14:00+14вюв445240 0.0 1024649
17:00+16вюв44495 0.0 1023677
20:00+16вюв33536 0.0 1022295